Weather History for PADQ - March, 2013

Change the Weather History Date:

Thursday, March 28, 2013

  Actual Average Record
Temperature  
Mean Temperature 37 °F 34 °F  
Max Temperature 39 °F 39 °F 53 °F (1970)
Min Temperature 34 °F 29 °F 7 °F (1952)
Degree Days  
Heating Degree Days 28 31  
Month to date heating degree days 933 905  
Since 1 July heating degree days 6854 6778  
Cooling Degree Days 0    
Month to date cooling degree days 0  
Year to date cooling degree days 0  
Moisture  
Dew Point 35 °F    
Average Humidity 0    
Maximum Humidity 0    
Minimum Humidity 0    
Precipitation  
Precipitation 0.51 in 0.18 in 1.07 in (1995)
Month to date precipitation 4.42 5.01  
Year to date precipitation 20.60 19.44  
Snow  
Snow 0.00 in 0.30 in 5.00 in (1953)
Month to date snowfall 11.7 10.2  
Since 1 July snowfall 60.1 59.6  
Snow Depth 1.00 in    
Sea Level Pressure  
Sea Level Pressure 29.79 in    
Wind  
Wind Speed 14 mph (ESE)    
Max Wind Speed 25 mph    
Max Gust Speed 31 mph    
Visibility 8 miles    
Events Rain    
T = Trace of Precipitation, MM = Missing Value Source: NWS Daily Summary

Daily Weather History Graph

Daily Weather History Graph

Search for Another Location

Airport or City:

Trip Planner

Search our weather history database for the weather conditions in past years. The results will help you decide how hot, cold, wet, or windy it might be!

Date:

Astronomy

Mar. 28, 2013 Rise Set
Actual Time 7:48 AM AKDT 8:42 PM AKDT
Civil Twilight 7:08 AM AKDT 9:22 PM AKDT
Nautical Twilight 6:20 AM AKDT 10:11 PM AKDT
Astronomical Twilight 5:27 AM AKDT 11:04 PM AKDT
Moon 11:21 PM AKDT (3/28) 7:57 AM AKDT (3/28)
Length of Visible Light 14h 13m
Length of Day
12h 54m
Full, 97% of the Moon is Illuminated
Mar 28
Full
Apr 2
Last Quarter
Apr 10
New
Apr 18
First Quarter
Apr 25
Full

Hourly Weather History & Observations

Time (AKDT) Temp. Windchill Dew Point Humidity Pressure Visibility Wind Dir Wind Speed Gust Speed Precip Events Conditions
12:00 AM 35.6 °F 29.9 °F 33.8 °F 93% 30.00 in 9.0 mi SE 6.9 mph - 0.00 in Rain Light Rain
12:53 AM 37.0 °F 31.6 °F 34.0 °F 89% 29.99 in 10.0 mi SE 6.9 mph - 0.01 in Rain Light Rain
1:07 AM 37.4 °F 28.9 °F 33.8 °F 87% 29.98 in 9.0 mi ESE 13.8 mph - 0.01 in Rain Light Rain
1:53 AM 37.0 °F 31.0 °F 34.0 °F 89% 29.98 in 10.0 mi SE 8.1 mph - 0.03 in Rain Light Rain
2:02 AM 37.4 °F 31.4 °F 33.8 °F 87% 29.97 in 10.0 mi SE 8.1 mph - 0.00 in Rain Light Rain
2:53 AM 36.0 °F 31.1 °F 33.1 °F 89% 29.96 in 10.0 mi SSE 5.8 mph - 0.02 in Rain Light Rain
3:53 AM 36.0 °F 26.0 °F 33.1 °F 89% 29.95 in 9.0 mi ESE 17.3 mph - 0.02 in Rain Light Rain
4:53 AM 36.0 °F 26.3 °F 33.1 °F 89% 29.93 in 10.0 mi SE 16.1 mph - 0.02 in Rain Light Rain
5:53 AM 37.0 °F 27.7 °F 34.0 °F 89% 29.90 in 8.0 mi SE 16.1 mph - 0.04 in Rain Light Rain
6:15 AM 37.4 °F 27.2 °F 33.8 °F 87% 29.89 in 10.0 mi SE 19.6 mph - 0.01 in Rain Light Rain
6:53 AM 37.0 °F 26.7 °F 34.0 °F 89% 29.88 in 10.0 mi ESE 19.6 mph - 0.02 in Rain Light Rain
7:53 AM 36.0 °F 24.7 °F 34.0 °F 93% 29.86 in 8.0 mi ESE 21.9 mph - 0.03 in Rain Light Rain
8:53 AM 37.0 °F 26.7 °F 35.1 °F 93% 29.84 in 7.0 mi ESE 19.6 mph - 0.04 in Rain Light Rain
9:53 AM 36.0 °F 25.3 °F 34.0 °F 93% 29.82 in 6.0 mi ESE 19.6 mph 29.9 mph 0.05 in Rain Light Rain
10:53 AM 36.0 °F 26.0 °F 34.0 °F 93% 29.81 in 7.0 mi ESE 17.3 mph - 0.04 in Rain Light Rain
11:53 AM 36.0 °F 25.6 °F 34.0 °F 93% 29.80 in 7.0 mi ESE 18.4 mph - 0.06 in Rain Light Rain
12:53 PM 36.0 °F 26.3 °F 34.0 °F 93% 29.77 in 9.0 mi ESE 16.1 mph - 0.04 in Rain Light Rain
1:53 PM 37.0 °F 27.4 °F 34.0 °F 89% 29.75 in 9.0 mi ESE 17.3 mph - 0.02 in Rain Light Rain
2:53 PM 37.9 °F 28.2 °F 35.1 °F 89% 29.72 in 7.0 mi ESE 18.4 mph - 0.03 in Rain Light Rain
3:00 PM 37.4 °F 26.6 °F 35.6 °F 93% 29.72 in 7.0 mi ESE 21.9 mph 26.5 mph 0.00 in Rain Light Rain
3:18 PM 37.4 °F 27.8 °F 35.6 °F 93% 29.71 in 7.0 mi ESE 17.3 mph - 0.01 in Rain Light Rain
3:53 PM 37.9 °F 28.5 °F 35.1 °F 89% 29.70 in 8.0 mi ESE 17.3 mph 24.2 mph 0.01 in Rain Light Rain
4:53 PM 39.0 °F 29.3 °F 36.0 °F 89% 29.67 in 4.0 mi ESE 19.6 mph 24.2 mph 0.01 in Rain Light Rain
5:53 PM 37.9 °F 27.6 °F 35.1 °F 89% 29.64 in 7.0 mi ESE 20.7 mph - 0.01 in Rain Light Rain
6:53 PM 37.9 °F 29.2 °F 37.0 °F 97% 29.64 in 4.0 mi ESE 15.0 mph - 0.01 in Rain Light Rain
7:53 PM 37.9 °F 31.5 °F 37.0 °F 97% 29.62 in 9.0 mi East 9.2 mph - 0.02 in Rain Light Rain
8:27 PM 37.4 °F 29.8 °F 37.4 °F 100% 29.61 in 5.0 mi ESE 11.5 mph - 0.00 in   Overcast
8:53 PM 37.9 °F 31.5 °F 37.0 °F 97% 29.62 in 5.0 mi SE 9.2 mph - 0.00 in   Overcast
9:53 PM 37.9 °F 34.4 °F 37.9 °F 100% 29.63 in 5.0 mi NE 4.6 mph - N/A   Overcast
10:53 PM 37.9 °F - 37.0 °F 97% 29.64 in 5.0 mi Calm Calm - N/A   Overcast
11:53 PM 37.9 °F - 37.0 °F 97% 29.65 in 7.0 mi Calm Calm - N/A   Mostly Cloudy